Home > Weather > Boca Raton > Past weeks

Flag for U.S.A. Weather for the Past 2 Weeks in Boca Raton, Florida, U.S.A.

Now
52 °F

Clear.


Feels Like: 51 °F
Forecast: 51 / 73 °F
Wind: 5 mph from Northwest

Location: Boca Raton Airport

Current Time: Feb 12, 2016 at 1:33:32 AM

Latest Report: Feb 11, 2016 at 10:47 PM


Visibility: 10 mi

Pressure: 30.29 "Hg

Humidity: 72%

Dew point: 43 °F

Location of Boca RatonLocation

Historic Weather in Boca Raton — Graph

°F

Boca Raton Temperature Yesterday

Maximum temperature yesterday: 66 °F (at 1:50 PM)
Minimum temperature yesterday: 46 °F (at 6:47 AM)
Average temperature yesterday: 57 °F

High & Low Weather Summary for the Past Weeks

 TemperatureHumidityPressure
High81 °F (Feb 2, 10:47 AM)100% (Jan 27, 10:58 PM)30.35 "Hg (Jan 27, 10:58 PM)
Low41 °F (Feb 8, 6:58 AM)20% (Feb 11, 12:53 PM)29.77 "Hg (Jan 28, 3:47 PM)
Average67 °F69%30.09 "Hg
* Reported Jan 27 10:58 PM — Feb 11 10:47 PM, Boca Raton, Weather by CustomWeather, © 2016

Note: Actual official high and low records may vary slightly from our data, if they occured in-between our weather recording intervals... More about our weather records

Advertising

Boca Raton Weather History for the Previous 24 Hours

 ConditionsComfort  
Time TempWeatherWind HumidityBarometerVisibility
10:47 PM
Thu, Feb 11
52 °FClear.5 mph72%30.29 "Hg10 mi
9:58 PM52 °FClear.5 mph72%30.29 "Hg10 mi
8:50 PM54 °FClear.3 mph72%30.29 "Hg10 mi
7:47 PM57 °FClear.5 mph63%30.28 "Hg10 mi
6:48 PM61 °FClear.3 mph59%30.27 "Hg10 mi
5:51 PM63 °FSunny.7 mph56%30.28 "Hg10 mi
3:50 PM64 °FSunny.12 mph40%30.25 "Hg10 mi
2:49 PM66 °FSunny.13 mph32%30.25 "Hg10 mi
1:50 PM66 °FSunny.7 mph21%30.27 "Hg10 mi
12:53 PM63 °FSunny.7 mph20%30.30 "Hg10 mi
11:47 AM63 °FSunny.8 mph22%30.33 "Hg10 mi
10:47 AM59 °FSunny.9 mph34%30.35 "Hg10 mi
9:47 AM55 °FSunny.14 mph44%30.34 "Hg10 mi
8:47 AM50 °FSunny.12 mph62%30.33 "Hg10 mi
7:47 AM48 °FSunny.9 mph71%30.31 "Hg10 mi
6:47 AM46 °FClear.6 mph82%30.29 "Hg10 mi
Weather by CustomWeather, © 2016

See weather overviewHow to use our weather pages